User: anonymous   Login
Location: Prague
(50.0830°N, 14.4670°E)
Time: 05:16:40
(UTC+01:00)
Language:

STARLINK-1670 - Orbit

View from above orbital plane
View from above orbital plane
View from above satellite
View from above satellite

Ground track
Ground track

The orbit data is extracted from the following two-line orbital elements,

1 46370U 20062AX  20336.83340278 -.01060714  00000-0 -47386-1 0  9999
2 46370  52.9971 353.5883 0001306  77.1238  10.7654 15.23852113 14793
Epoch (UTC): 01 December 2020 20:00:06
Eccentricity: 0.0001306
inclination: 52.9971°
perigee height: 493 km
apogee height: 495 km
right ascension of ascending node: 353.5883°
argument of perigee: 77.1238°
revolutions per day: 15.23852113
mean anomaly at epoch: 10.7654°
orbit number at epoch: 1479

The dashed part of the orbit path shows where the satellite is in the earth's shadow,  

DLR